National Weather Service Hourly Weather Roundup
NOAA NWS Hourly Roundups by Site
NOAA NWS Hourly Roundups by Site
Regional Weather Roundup for Sacramento, CA

To Select Another Site Choose from List

Select Site:  

000
ASUS46 KSTO 211415
RWRCA

NORTHERN AND CENTRAL CA REGIONAL WEATHER ROUNDUP
NATIONAL WEATHER SERVICE SACRAMENTO CA
600 AM PST THU NOV 21 2019

NOTE: FAIR INDICATES FEW OR NO CLOUDS BELOW 12,000 FEET WITH NO
SIGNIFICANT WEATHER AND/OR OBSTRUCTIONS TO VISIBILITY.

CAZ001-003-211500-
NORTHWEST AREA

CITY           SKY/WX    TMP DP  RH WIND       PRES   REMARKS
CRESCENT CITY  CLEAR     49  32  52 E6        29.80R
UKIAH          CLEAR     36  30  79 CALM      29.82R
$$

CAZ006-505>513-211500-
BAY AREA

CITY           SKY/WX    TMP DP  RH WIND       PRES   REMARKS
SANTA ROSA     CLEAR     37  32  82 CALM      29.79R
SAN RAFAEL     N/A       MM  MM  MM MISG
NAPA           CLEAR     48  43  82 E9        29.79R
CONCORD        CLEAR     47  42  83 CALM      29.80R
OAKLAND CITY   N/A       54  MM  MM MISG
OAKLAND        CLEAR     51  41  68 E9        29.79R
SAN FRAN CITY  N/A       56  MM  53 MISG
SAN FRAN ARPT  PTCLDY    55  44  66 E3        29.79R
LIVERMORE      CLEAR     42  31  64 CALM      29.80R
HAYWARD        CLEAR     47  34  60 NE5       29.79R
REDWOOD CITY   N/A       43  MM  80 MISG
MOFFETT ARPT     N/A    N/A N/A N/A MISG      29.80R
SAN JOSE ARPT  CLEAR     46  39  76 SE7       29.79R
$$
CAZ034-037-514>518-211500-
CENTRAL COAST

CITY           SKY/WX    TMP DP  RH WIND       PRES   REMARKS
WATSONVILLE    CLEAR     48  43  82 CALM      29.81R
SALINAS        CLEAR     46  40  79 SE9       29.80R
MONTEREY       CLEAR     45  38  76 E5        29.80R
SAN LUIS OBISP CLEAR     41  40  96 CALM      29.82R
SANTA MARIA    CLEAR     45  42  89 SE3       29.81R
$$
CAZ015-016-211500-
NORTHERN SACRAMENTO VALLEY

CITY           SKY/WX    TMP DP  RH WIND       PRES   REMARKS
REDDING        CLEAR     53  28  38 N7        29.81S
RED BLUFF      CLEAR     51  28  41 NW8       29.82R
OROVILLE       CLEAR     47  39  74 E7        29.83R
$$
CAZ016>018-211500-
SOUTHERN SACRAMENTO VALLEY

CITY           SKY/WX    TMP DP  RH WIND       PRES   REMARKS
AUBURN         PTCLDY    37  37 100 CALM      29.82R
BEALE AFB      CLEAR     43  37  80 E5        29.81R
LINCOLN        FAIR      36  36 100 NE7       29.81R WCI  30
MARYSVILLE     CLEAR     41  37  86 E5        29.83R
SAC INTL ARPT  CLEAR     42  40  92 CALM      29.81R
MATHER AIRPORT NOT AVBL
DOWNTOWN SAC   N/A       46  MM  MM MISG
SAC EXEC ARPT  CLEAR     44  40  85 CALM      29.82R
VACAVILLE      CLEAR     45  37  73 N5        29.83R
TRAVIS AFB     CLEAR     40  34  79 N9        29.81R WCI  34
$$
CAZ019>021-211500-
SAN JOAQUIN VALLEY

CITY           SKY/WX    TMP DP  RH WIND       PRES   REMARKS
STOCKTON       CLEAR     46  42  86 NE6       29.80R
MODESTO        CLEAR     43  40  89 CALM      29.79R
MERCED         CLEAR     45  40  82 CALM      29.79R
LEMOORE        MOCLDY    44  41  89 SE6       29.79R
FRESNO         MOCLDY    50  44  80 NE7       29.81R
HANFORD        CLEAR     48  44  86 E5        29.80R
PORTERVILLE      N/A     45  44  97 E3        29.81R
BAKERSFIELD    CLEAR     46  41  82 N5        29.79R
$$
CAZ011-012-071-211500-
NORTHERN MOUNTAINS

CITY           SKY/WX    TMP DP  RH WIND       PRES   REMARKS
YREKA          CLEAR     29  22  75 CALM      29.92S
MOUNT SHASTA   CLEAR     25  20  81 CALM      29.87F
ALTURAS        CLEAR     23  19  85 CALM      29.89S FOG
$$
CAZ011-012-071-211500-
SIERRA NEVADA MTNS

CITY           SKY/WX    TMP DP  RH WIND       PRES   REMARKS
BLUE CANYON    CLEAR     37  26  64 CALM      29.81R
TAHOE VLY ARPT CLOUDY    31  28  89 S5        29.84R WCI  26
MAMMOTH LAKES  CLOUDY    31  27  84 NW10      29.83S WCI  23
$$


 

View Past Reports for Sacramento, CA.

Products Courtesy of NOAA-NWS
NWS Information Parsing Script by Ken True at Saratoga Weather - Script by SE Lincoln Weather.

powered by Cumulus v1.9.3 (1059)
Ambient Weather VWS v14.00
Top Website Map Copyright © 2007 - 2019 Foresthillweather.com Never base important decisions on this or any weather information obtained from the Internet